Date String (YYYY-MM-DD hh:mm:ss) UTC,Instrument flags,Ambient pressure (hPa),Sample flow (lpm),Bypass flow (lpm),Sample temperature (°C),Ambient temperature (°C),ASC tube jacket temperature (°C),LED temperature (°C),Box temperature (°C),Sample RH (%),Span deviation,Mass concentration (μg/m³),Mass concentration (μg/m³),Mass concentration (μg/m³)
DateTimeUTC,F1_M11,P_M11,Q1_M11,Q2_M11,T1_M11,T2_M11,T3_M11,T4_M11,T5_M11,U1_M11,ZSPAN_M11,X0_M11,X2_M11,X1_M11
2021-12-01 02:00:00,,0826.5,5.01,0.00,27.9,27.0,00.0,36.9,29.7,12.2,0000.0,0030.35,0010.07,0006.98
2021-12-01 02:01:00,,0826.5,4.99,0.00,27.9,27.0,00.0,36.9,29.7,12.2,0000.0,0030.81,0010.01,0006.95
2021-12-01 02:02:00,,0826.5,5.01,0.00,27.9,27.0,00.0,36.8,29.6,12.3,0000.0,0031.90,0009.94,0006.93
2021-12-01 02:03:00,,0826.5,4.98,0.00,27.9,27.0,00.0,36.8,29.6,12.3,0000.0,0032.38,0009.81,0006.90
2021-12-01 02:04:00,,0826.5,5.01,0.00,27.8,27.0,00.0,36.8,29.6,12.3,0000.0,0034.01,0009.70,0006.87
2021-12-01 02:05:00,,0826.6,5.01,0.00,27.8,27.0,00.0,36.8,29.6,12.3,0000.0,0036.39,0009.73,0006.87
2021-12-01 02:06:00,,0826.7,4.99,0.00,27.8,27.0,00.0,36.8,29.6,12.4,0000.0,0038.41,0009.75,0006.85
2021-12-01 02:07:00,,0826.6,5.02,0.00,27.8,27.0,00.0,36.8,29.6,12.4,0000.0,0040.05,0009.72,0006.83
2021-12-01 02:08:00,,0826.5,5.02,0.00,27.8,27.0,00.0,36.8,29.6,12.4,0000.0,0042.06,0009.77,0006.82
2021-12-01 02:09:00,,0826.6,4.98,0.00,27.8,27.0,00.0,36.8,29.6,12.4,0000.0,0044.59,0009.81,0006.83
2021-12-01 02:10:00,,0826.7,5.01,0.00,27.8,27.0,00.0,36.8,29.6,12.4,0000.0,0046.28,0009.76,0006.84
2021-12-01 02:11:00,,0826.7,4.99,0.00,27.9,27.0,00.0,36.8,29.6,12.4,0000.0,0047.15,0009.81,0006.86
2021-12-01 02:12:00,,0826.7,5.00,0.00,27.8,27.0,00.0,36.8,29.7,12.4,0000.0,0047.80,0009.83,0006.90
2021-12-01 02:13:00,,0826.7,5.00,0.00,27.8,27.0,00.0,36.8,29.6,12.4,0000.0,0046.97,0009.86,0006.93
2021-12-01 02:14:00,,0826.7,5.00,0.00,27.9,27.0,00.0,36.8,29.7,12.4,0000.0,0046.25,0009.96,0006.99
2021-12-01 02:15:00,,0826.6,5.00,0.00,27.9,27.0,00.0,36.8,29.7,12.4,0002.0,0044.53,0010.08,0007.03
2021-12-01 02:16:00,,0826.6,5.00,0.00,27.9,27.0,00.0,36.8,29.7,12.4,0004.8,0043.53,0010.13,0007.07
2021-12-01 02:17:00,,0826.7,5.01,0.00,27.9,27.0,00.0,36.8,29.7,12.4,0004.7,0044.33,0010.15,0007.10
2021-12-01 02:18:00,,0826.7,5.00,0.00,27.9,27.0,00.0,36.8,29.7,12.4,0004.7,0044.95,0010.15,0007.13
2021-12-01 02:19:00,,0826.5,5.00,0.00,27.9,27.1,00.0,36.9,29.7,12.4,0004.6,0042.70,0010.11,0007.16
2021-12-01 02:20:00,,0826.4,4.99,0.00,27.9,27.1,00.0,36.8,29.7,12.4,0003.4,0039.66,0010.05,0007.15
2021-12-01 02:21:00,,0826.4,5.00,0.00,27.9,27.1,00.0,36.8,29.7,12.4,0001.1,0038.36,0010.07,0007.12
2021-12-01 02:22:00,,0826.4,4.99,0.00,27.9,27.1,00.0,36.8,29.7,12.4,0005.4,0042.05,0010.06,0007.10
2021-12-01 02:23:00,,0826.5,5.02,0.00,27.9,27.1,00.0,36.8,29.7,12.4,0005.3,0043.54,0009.95,0007.05
2021-12-01 02:24:00,,0826.5,4.99,0.00,27.9,27.1,00.0,36.8,29.7,12.3,0005.0,0043.38,0009.90,0007.01
2021-12-01 02:25:00,,0826.5,5.01,0.00,27.9,27.1,00.0,36.9,29.7,12.3,0005.4,0043.13,0009.82,0006.95
2021-12-01 02:26:00,,0826.4,4.98,0.00,27.9,27.1,00.0,36.9,29.7,12.3,0005.3,0045.92,0009.77,0006.90
2021-12-01 02:27:00,,0826.5,5.01,0.00,27.9,27.1,00.0,36.9,29.7,12.3,0005.0,0044.79,0009.65,0006.85
2021-12-01 02:28:00,,0826.5,4.99,0.00,27.9,27.1,00.0,36.9,29.7,12.3,0005.0,0041.67,0009.54,0006.80
2021-12-01 02:29:00,,0826.5,5.00,0.00,27.9,27.1,00.0,36.9,29.8,12.3,0005.5,0039.90,0009.49,0006.76
2021-12-01 02:30:00,,0826.6,5.01,0.00,27.9,27.1,00.0,36.9,29.8,12.3,0005.5,0042.00,0009.45,0006.75
2021-12-01 02:31:00,,0826.5,5.00,0.00,27.9,27.1,00.0,36.9,29.7,12.3,0005.4,0041.17,0009.42,0006.70
2021-12-01 02:32:00,,0826.6,5.00,0.00,28.0,27.1,00.0,36.9,29.7,12.3,0005.0,0041.40,0009.42,0006.66
2021-12-01 02:33:00,,0826.5,5.00,0.00,28.0,27.1,00.0,36.9,29.8,12.3,0004.5,0036.63,0009.37,0006.62
2021-12-01 02:34:00,,0826.6,5.00,0.00,28.0,27.1,00.0,36.9,29.8,12.3,0004.3,0034.25,0009.43,0006.64
2021-12-01 02:35:00,,0826.7,5.00,0.00,28.0,27.1,00.0,36.9,29.7,12.3,0004.3,0034.25,0009.46,0006.64
2021-12-01 02:36:00,,0826.6,4.99,0.00,28.0,27.1,00.0,36.9,29.7,12.3,0003.6,0034.69,0009.49,0006.64
2021-12-01 02:37:00,,0826.5,5.00,0.00,28.0,27.0,00.0,36.9,29.7,12.3,0000.7,0031.92,0009.47,0006.66
2021-12-01 02:38:00,,0826.6,5.01,0.00,27.9,27.1,00.0,36.9,29.7,12.3,0000.6,0033.46,0009.52,0006.64
2021-12-01 02:39:00,,0826.7,4.98,0.00,28.0,27.1,00.0,36.9,29.7,12.2,0002.5,0034.20,0009.53,0006.62
2021-12-01 02:40:00,,0826.5,5.02,0.00,28.0,27.1,00.0,36.9,29.8,12.2,0001.0,0034.13,0009.42,0006.57
2021-12-01 02:41:00,,0826.5,4.99,0.00,28.0,27.1,00.0,36.9,29.7,12.1,0000.0,0031.69,0009.35,0006.48
2021-12-01 02:42:00,,0826.5,5.00,0.00,27.9,27.1,00.0,36.9,29.7,12.0,0000.0,0032.44,0009.24,0006.43
2021-12-01 02:43:00,,0826.7,5.01,0.00,27.9,27.0,00.0,36.9,29.6,12.1,0000.0,0032.26,0009.14,0006.44
2021-12-01 02:44:00,,0826.6,5.00,0.00,27.8,27.0,00.0,36.9,29.5,12.1,0000.0,0033.72,0009.09,0006.45
2021-12-01 02:45:00,,0826.7,5.01,0.00,27.8,27.0,00.0,36.9,29.5,12.2,0000.6,0034.32,0009.12,0006.44
2021-12-01 02:46:00,,0826.7,5.01,0.00,27.8,26.9,00.0,36.9,29.4,12.3,0000.7,0035.18,0009.09,0006.43
2021-12-01 02:47:00,,0826.7,4.98,0.00,27.7,26.8,00.0,36.8,29.4,12.3,-000.0,0036.51,0009.08,0006.44
2021-12-01 02:48:00,,0826.6,5.01,0.00,27.7,26.8,00.0,36.8,29.4,12.3,-000.7,0037.13,0009.14,0006.44
2021-12-01 02:49:00,,0826.6,4.98,0.00,27.7,26.7,00.0,36.8,29.4,12.3,-000.5,0034.99,0009.13,0006.46
2021-12-01 02:50:00,,0826.6,5.00,0.00,27.7,26.7,00.0,36.8,29.4,12.3,-000.4,0035.15,0009.20,0006.50
2021-12-01 02:51:00,,0826.5,5.00,0.00,27.7,26.7,00.0,36.8,29.4,12.4,0000.3,0034.87,0009.30,0006.53
2021-12-01 02:52:00,,0826.6,5.00,0.00,27.7,26.7,00.0,36.8,29.4,12.4,0000.2,0036.14,0009.33,0006.55
2021-12-01 02:53:00,,0826.7,5.00,0.00,27.6,26.7,00.0,36.7,29.3,12.5,0000.1,0035.62,0009.37,0006.59
2021-12-01 02:54:00,,0826.7,5.00,0.00,27.6,26.7,00.0,36.7,29.3,12.5,0001.1,0036.21,0009.42,0006.59
2021-12-01 02:55:00,,0826.7,4.99,0.00,27.6,26.7,00.0,36.7,29.3,12.4,0001.5,0034.54,0009.48,0006.60
2021-12-01 02:56:00,,0826.7,5.00,0.00,27.6,26.7,00.0,36.7,29.2,12.5,0001.3,0033.86,0009.41,0006.60
2021-12-01 02:57:00,,0826.7,5.01,0.00,27.5,26.6,00.0,36.7,29.2,12.6,0001.3,0032.73,0009.46,0006.60
2021-12-01 02:58:00,,0826.8,5.00,0.00,27.5,26.6,00.0,36.7,29.2,12.5,0001.9,0031.13,0009.44,0006.59
2021-12-01 02:59:00,,0826.8,5.00,0.00,27.5,26.6,00.0,36.7,29.2,12.5,0002.7,0031.81,0009.37,0006.57
